| time (UTC) | temp C | wind direction | speed KPH | gust KPH | rain 1hr cm | rain 24hr cm | rain mn cm | humidity % | barometer mb |
| 20260507211007 | 8 | 296 | 4.8 | 16.1 | 0.00 | 0.00 | 0.00 | 40 | 1010.6 |
| 20260507210507 | 8 | 185 | 4.8 | 16.1 | 0.00 | 0.00 | 0.00 | 40 | 1010.6 |
| 20260507210019 | 8 | 255 | 1.6 | 12.9 | 0.00 | 0.00 | 0.00 | 41 | 1010.6 |
| 20260507205506 | 8 | 233 | 4.8 | 12.9 | 0.00 | 0.00 | 0.00 | 41 | 1010.6 |
| 20260507205007 | 8 | 219 | 3.2 | 12.9 | 0.00 | 0.00 | 0.00 | 42 | 1010.6 |
| 20260507204523 | 8 | 165 | 3.2 | 12.9 | 0.00 | 0.00 | 0.00 | 40 | 1010.5 |
| 20260507204009 | 8 | 236 | 0.0 | 12.9 | 0.00 | 0.00 | 0.00 | 41 | 1010.5 |
| 20260507203509 | 8 | 276 | 3.2 | 12.9 | 0.00 | 0.00 | 0.00 | 40 | 1010.6 |
| 20260507203033 | 8 | 207 | 3.2 | 16.1 | 0.00 | 0.00 | 0.00 | 39 | 1010.6 |
| 20260507202502 | 8 | 336 | 3.2 | 16.1 | 0.00 | 0.00 | 0.00 | 43 | 1010.7 |
| 20260507202002 | 8 | 280 | 3.2 | 14.5 | 0.00 | 0.00 | 0.00 | 43 | 1010.7 |
| 20260507201511 | 8 | 169 | 3.2 | 16.1 | 0.00 | 0.00 | 0.00 | 42 | 1010.6 |
| 20260507201003 | 8 | 188 | 3.2 | 19.3 | 0.00 | 0.00 | 0.00 | 42 | 1010.6 |
| 20260507200506 | 8 | 267 | 9.7 | 19.3 | 0.00 | 0.00 | 0.00 | 41 | 1010.7 |
| 20260507200016 | 8 | 61 | 1.6 | 14.5 | 0.00 | 0.00 | 0.00 | 42 | 1010.7 |
| 20260507195506 | 8 | 236 | 6.4 | 17.7 | 0.00 | 0.00 | 0.00 | 41 | 1010.7 |
| 20260507195011 | 8 | 252 | 3.2 | 17.7 | 0.00 | 0.00 | 0.00 | 42 | 1010.8 |
| 20260507194527 | 8 | 334 | 3.2 | 16.1 | 0.00 | 0.00 | 0.00 | 42 | 1010.8 |
| 20260507194006 | 8 | 282 | 6.4 | 14.5 | 0.00 | 0.00 | 0.00 | 41 | 1010.8 |
| 20260507193509 | 8 | 236 | 3.2 | 11.3 | 0.00 | 0.00 | 0.00 | 43 | 1010.8 |
| 20260507193032 | 8 | 227 | 3.2 | 11.3 | 0.00 | 0.00 | 0.00 | 43 | 1010.8 |
| 20260507192509 | 8 | 281 | 4.8 | 12.9 | 0.00 | 0.00 | 0.00 | 43 | 1010.8 |
| 20260507192009 | 8 | 230 | 3.2 | 14.5 | 0.00 | 0.00 | 0.00 | 49 | 1010.8 |
| 20260507191528 | 7 | 225 | 3.2 | 16.1 | 0.00 | 0.00 | 0.00 | 48 | 1011.0 |
| 20260507191002 | 7 | 197 | 3.2 | 16.1 | 0.00 | 0.00 | 0.00 | 47 | 1011.0 |
| 20260507190503 | 7 | 287 | 8.0 | 16.1 | 0.00 | 0.00 | 0.00 | 44 | 1011.0 |
| 20260507190012 | 7 | 160 | 4.8 | 16.1 | 0.00 | 0.00 | 0.00 | 45 | 1011.0 |
| 20260507185504 | 7 | 221 | 3.2 | 16.1 | 0.00 | 0.00 | 0.00 | 48 | 1011.0 |
| 20260507185010 | 7 | 332 | 4.8 | 16.1 | 0.00 | 0.00 | 0.00 | 49 | 1011.0 |
| 20260507184517 | 7 | 28 | 6.4 | 16.1 | 0.00 | 0.00 | 0.00 | 48 | 1011.0 |
| 20260507184007 | 7 | 271 | 4.8 | 14.5 | 0.00 | 0.00 | 0.00 | 48 | 1011.1 |
| 20260507183508 | 7 | 191 | 4.8 | 14.5 | 0.00 | 0.00 | 0.00 | 45 | 1011.1 |
| 20260507183035 | 7 | 260 | 3.2 | 14.5 | 0.00 | 0.00 | 0.00 | 47 | 1011.1 |
| 20260507182506 | 7 | 258 | 4.8 | 14.5 | 0.00 | 0.00 | 0.00 | 47 | 1011.1 |
| 20260507182011 | 7 | 203 | 6.4 | 14.5 | 0.00 | 0.00 | 0.00 | 48 | 1011.2 |
| 20260507181524 | 7 | 207 | 1.6 | 12.9 | 0.00 | 0.00 | 0.00 | 48 | 1011.3 |
| 20260507181010 | 7 | 284 | 4.8 | 16.1 | 0.00 | 0.00 | 0.00 | 47 | 1011.3 |
| 20260507180509 | 7 | 262 | 6.4 | 16.1 | 0.00 | 0.00 | 0.00 | 47 | 1011.3 |
| 20260507180032 | 7 | 227 | 6.4 | 16.1 | 0.00 | 0.00 | 0.00 | 48 | 1011.3 |
| 20260507175504 | 7 | 25 | 4.8 | 16.1 | 0.00 | 0.00 | 0.00 | 47 | 1011.4 |
| 20260507175004 | 7 | 294 | 8.0 | 16.1 | 0.00 | 0.00 | 0.00 | 48 | 1011.4 |
| 20260507174516 | 7 | 229 | 6.4 | 16.1 | 0.00 | 0.00 | 0.00 | 48 | 1011.4 |
| 20260507174006 | 7 | 233 | 6.4 | 14.5 | 0.00 | 0.00 | 0.00 | 49 | 1011.5 |
| 20260507173506 | 7 | 244 | 3.2 | 22.5 | 0.00 | 0.00 | 0.00 | 49 | 1011.5 |
| 20260507173020 | 7 | 173 | 3.2 | 22.5 | 0.00 | 0.00 | 0.00 | 47 | 1011.5 |
| 20260507172507 | 7 | 221 | 0.0 | 17.7 | 0.00 | 0.00 | 0.00 | 47 | 1011.6 |
| 20260507172009 | 7 | 198 | 1.6 | 17.7 | 0.00 | 0.00 | 0.00 | 47 | 1011.7 |
| 20260507171523 | 7 | 201 | 4.8 | 16.1 | 0.00 | 0.00 | 0.00 | 48 | 1011.8 |
| 20260507171012 | 6 | 236 | 6.4 | 16.1 | 0.00 | 0.00 | 0.00 | 47 | 1011.9 |
| 20260507170513 | 6 | 269 | 4.8 | 16.1 | 0.00 | 0.00 | 0.00 | 46 | 1011.9 |
| 20260507170026 | 6 | 285 | 6.4 | 16.1 | 0.00 | 0.00 | 0.00 | 46 | 1011.9 |
| 20260507165509 | 7 | 240 | 1.6 | 12.9 | 0.00 | 0.00 | 0.00 | 46 | 1012.0 |
| 20260507165009 | 7 | 244 | 1.6 | 12.9 | 0.00 | 0.00 | 0.00 | 47 | 1012.0 |
| 20260507164530 | 7 | 352 | 4.8 | 12.9 | 0.00 | 0.00 | 0.00 | 47 | 1012.1 |
| 20260507164003 | 7 | 321 | 4.8 | 12.9 | 0.00 | 0.00 | 0.00 | 46 | 1012.1 |
| 20260507163504 | 7 | 219 | 0.0 | 12.9 | 0.00 | 0.00 | 0.00 | 48 | 1012.2 |
| 20260507163014 | 7 | 61 | 3.2 | 12.9 | 0.00 | 0.00 | 0.00 | 48 | 1012.2 |
| 20260507162507 | 7 | 334 | 3.2 | 11.3 | 0.00 | 0.00 | 0.00 | 48 | 1012.2 |
| 20260507162007 | 7 | 226 | 3.2 | 8.0 | 0.00 | 0.00 | 0.00 | 47 | 1012.3 |
| 20260507161531 | 7 | 281 | 1.6 | 17.7 | 0.00 | 0.00 | 0.00 | 48 | 1012.3 |
| 20260507161008 | 6 | 26 | 4.8 | 17.7 | 0.00 | 0.00 | 0.00 | 47 | 1012.4 |
| 20260507160508 | 7 | 269 | 4.8 | 12.9 | 0.00 | 0.00 | 0.00 | 47 | 1012.4 |
| 20260507160038 | 7 | 301 | 3.2 | 12.9 | 0.00 | 0.00 | 0.00 | 48 | 1012.4 |
| 20260507155508 | 7 | 221 | 3.2 | 11.3 | 0.00 | 0.00 | 0.00 | 48 | 1012.6 |
| 20260507155011 | 7 | 271 | 3.2 | 11.3 | 0.00 | 0.00 | 0.00 | 47 | 1012.6 |
| 20260507154531 | 7 | 348 | 3.2 | 11.3 | 0.00 | 0.00 | 0.00 | 48 | 1012.5 |
| 20260507154009 | 6 | 246 | 3.2 | 11.3 | 0.00 | 0.00 | 0.00 | 47 | 1012.6 |
| 20260507153512 | 6 | 96 | 4.8 | 12.9 | 0.00 | 0.00 | 0.00 | 49 | 1012.7 |
| 20260507153012 | 6 | 205 | 3.2 | 12.9 | 0.00 | 0.00 | 0.00 | 48 | 1012.7 |
| 20260507152504 | 7 | 108 | 3.2 | 17.7 | 0.00 | 0.00 | 0.00 | 51 | 1012.8 |
| 20260507152005 | 6 | 230 | 3.2 | 17.7 | 0.00 | 0.00 | 0.00 | 49 | 1012.7 |
| 20260507151519 | 6 | 247 | 8.0 | 17.7 | 0.00 | 0.00 | 0.00 | 51 | 1012.7 |
| 20260507151005 | 6 | 271 | 3.2 | 17.7 | 0.00 | 0.00 | 0.00 | 51 | 1012.8 |
| 20260507150508 | 6 | 246 | 6.4 | 16.1 | 0.00 | 0.00 | 0.00 | 53 | 1012.8 |
| 20260507150027 | 6 | 215 | 8.0 | 16.1 | 0.00 | 0.00 | 0.00 | 53 | 1012.7 |
| 20260507145510 | 6 | 251 | 3.2 | 14.5 | 0.00 | 0.00 | 0.00 | 54 | 1012.7 |
| 20260507145004 | 6 | 203 | 1.6 | 12.9 | 0.00 | 0.00 | 0.00 | 54 | 1012.8 |
| 20260507144504 | 6 | 313 | 3.2 | 12.9 | 0.00 | 0.00 | 0.00 | 55 | 1012.7 |
| 20260507144004 | 6 | 223 | 3.2 | 12.9 | 0.00 | 0.00 | 0.00 | 56 | 1012.6 |
| 20260507143504 | 6 | 190 | 3.2 | 12.9 | 0.00 | 0.00 | 0.00 | 56 | 1012.7 |
| 20260507143014 | 6 | 253 | 4.8 | 12.9 | 0.00 | 0.00 | 0.00 | 57 | 1012.7 |
| 20260507142505 | 6 | 261 | 4.8 | 12.9 | 0.00 | 0.00 | 0.00 | 58 | 1012.6 |
| 20260507142004 | 6 | 219 | 1.6 | 9.7 | 0.00 | 0.00 | 0.00 | 58 | 1012.6 |
| 20260507141519 | 6 | 186 | 0.0 | 11.3 | 0.00 | 0.00 | 0.00 | 60 | 1012.7 |
| 20260507141008 | 6 | 189 | 1.6 | 17.7 | 0.00 | 0.00 | 0.00 | 57 | 1012.7 |
| 20260507140509 | 6 | 263 | 4.8 | 17.7 | 0.00 | 0.00 | 0.00 | 57 | 1012.7 |
| 20260507140006 | 5 | 242 | 6.4 | 14.5 | 0.00 | 0.00 | 0.00 | 57 | 1012.8 |
| 20260507135503 | 5 | 244 | 4.8 | 12.9 | 0.00 | 0.00 | 0.00 | 62 | 1012.9 |
| 20260507135003 | 6 | 198 | 4.8 | 11.3 | 0.00 | 0.00 | 0.00 | 59 | 1012.7 |
| 20260507134505 | 6 | 242 | 0.0 | 14.5 | 0.00 | 0.00 | 0.00 | 61 | 1012.7 |
| 20260507134004 | 5 | 150 | 1.6 | 14.5 | 0.00 | 0.00 | 0.00 | 62 | 1012.7 |
| 20260507133504 | 5 | 248 | 4.8 | 20.9 | 0.00 | 0.00 | 0.00 | 63 | 1012.6 |
| 20260507133007 | 5 | 313 | 9.7 | 20.9 | 0.00 | 0.00 | 0.00 | 66 | 1012.8 |
| 20260507132504 | 5 | 222 | 4.8 | 17.7 | 0.00 | 0.00 | 0.00 | 66 | 1012.7 |
| 20260507132006 | 5 | 276 | 8.0 | 17.7 | 0.00 | 0.00 | 0.00 | 66 | 1012.7 |
| 20260507131514 | 5 | 308 | 4.8 | 11.3 | 0.00 | 0.00 | 0.00 | 67 | 1012.8 |
| 20260507131005 | 5 | 204 | 1.6 | 11.3 | 0.00 | 0.00 | 0.00 | 69 | 1012.8 |
| 20260507130505 | 5 | 233 | 4.8 | 11.3 | 0.00 | 0.00 | 0.00 | 70 | 1012.8 |
| 20260507130024 | 5 | 273 | 3.2 | 11.3 | 0.00 | 0.00 | 0.00 | 71 | 1012.7 |
| 20260507125508 | 4 | 236 | 4.8 | 11.3 | 0.00 | 0.00 | 0.00 | 71 | 1012.7 |
| 20260507125011 | 4 | 330 | 6.4 | 11.3 | 0.00 | 0.00 | 0.00 | 72 | 1012.7 |
| 20260507124505 | 4 | 271 | 3.2 | 11.3 | 0.00 | 0.00 | 0.00 | 74 | 1012.7 |
| 20260507124003 | 4 | 273 | 1.6 | 17.7 | 0.00 | 0.00 | 0.00 | 75 | 1012.7 |
| 20260507123504 | 3 | 218 | 4.8 | 17.7 | 0.00 | 0.00 | 0.00 | 76 | 1012.5 |
| 20260507123005 | 3 | 257 | 4.8 | 17.7 | 0.00 | 0.00 | 0.00 | 78 | 1012.5 |
| 20260507122504 | 3 | 227 | 3.2 | 6.4 | 0.00 | 0.00 | 0.00 | 80 | 1012.5 |
| 20260507122008 | 3 | 266 | 0.0 | 12.9 | 0.00 | 0.00 | 0.00 | 81 | 1012.5 |
| 20260507121511 | 3 | 251 | 4.8 | 12.9 | 0.00 | 0.00 | 0.00 | 82 | 1012.5 |
| 20260507121004 | 2 | 243 | 0.0 | 4.8 | 0.00 | 0.00 | 0.00 | 83 | 1012.6 |
| 20260507120508 | 2 | 243 | 1.6 | 6.4 | 0.00 | 0.00 | 0.00 | 84 | 1012.5 |
| 20260507120014 | 2 | 223 | 0.0 | 6.4 | 0.00 | 0.00 | 0.00 | 85 | 1012.5 |
| 20260507115504 | 2 | 239 | 1.6 | 6.4 | 0.00 | 0.00 | 0.00 | 88 | 1012.5 |
| 20260507115004 | 1 | 228 | 3.2 | 6.4 | 0.00 | 0.00 | 0.00 | 89 | 1012.4 |
| 20260507114518 | 1 | 302 | 0.0 | 0.0 | 0.00 | 0.00 | 0.00 | 91 | 1012.4 |
| 20260507114008 | 0 | 302 | 0.0 | 0.0 | 0.00 | 0.00 | 0.00 | 91 | 1012.4 |
| 20260507113506 | 0 | 302 | 0.0 | 0.0 | 0.00 | 0.00 | 0.00 | 91 | 1012.4 |
| 20260507113009 | 0 | 302 | 0.0 | 0.0 | 0.00 | 0.00 | 0.00 | 91 | 1012.4 |
| 20260507112504 | 0 | 302 | 0.0 | 0.0 | 0.00 | 0.00 | 0.00 | 91 | 1012.3 |
| 20260507112004 | 0 | 302 | 0.0 | 0.0 | 0.00 | 0.00 | 0.00 | 91 | 1012.3 |
| 20260507111507 | 0 | 302 | 0.0 | 0.0 | 0.00 | 0.00 | 0.00 | 91 | 1012.2 |
| 20260507111004 | 0 | 302 | 0.0 | 0.0 | 0.00 | 0.00 | 0.00 | 91 | 1012.1 |
| 20260507110503 | 0 | 302 | 0.0 | 0.0 | 0.00 | 0.00 | 0.00 | 91 | 1012.0 |
| 20260507110024 | 0 | 302 | 0.0 | 0.0 | 0.00 | 0.00 | 0.00 | 90 | 1012.0 |
| 20260507105503 | 0 | 302 | 0.0 | 0.0 | 0.00 | 0.00 | 0.00 | 90 | 1012.0 |
| 20260507105007 | -1 | 302 | 0.0 | 0.0 | 0.00 | 0.00 | 0.00 | 90 | 1011.9 |
| 20260507104514 | 0 | 302 | 0.0 | 0.0 | 0.00 | 0.00 | 0.00 | 90 | 1011.9 |
| 20260507104005 | 0 | 302 | 0.0 | 1.6 | 0.00 | 0.00 | 0.00 | 90 | 1011.9 |
| 20260507103506 | 0 | 302 | 0.0 | 1.6 | 0.00 | 0.00 | 0.00 | 90 | 1011.9 |
| 20260507103020 | 0 | 302 | 0.0 | 0.0 | 0.00 | 0.00 | 0.00 | 90 | 1011.9 |
| 20260507102506 | 0 | 302 | 0.0 | 0.0 | 0.00 | 0.00 | 0.00 | 89 | 1011.8 |
| 20260507102010 | 0 | 302 | 0.0 | 0.0 | 0.00 | 0.00 | 0.00 | 90 | 1011.8 |
| 20260507101526 | 0 | 302 | 0.0 | 0.0 | 0.00 | 0.00 | 0.00 | 89 | 1011.9 |
| 20260507101003 | 0 | 302 | 0.0 | 0.0 | 0.00 | 0.00 | 0.00 | 89 | 1012.0 |
| 20260507100503 | 0 | 302 | 0.0 | 0.0 | 0.00 | 0.00 | 0.00 | 89 | 1012.0 |
| 20260507100011 | 0 | 302 | 0.0 | 0.0 | 0.00 | 0.00 | 0.00 | 89 | 1011.9 |
| 20260507095503 | 0 | 302 | 0.0 | 0.0 | 0.00 | 0.00 | 0.00 | 89 | 1011.9 |
| 20260507095004 | 0 | 302 | 0.0 | 0.0 | 0.00 | 0.00 | 0.00 | 89 | 1012.0 |
| 20260507094513 | 0 | 302 | 0.0 | 0.0 | 0.00 | 0.00 | 0.00 | 88 | 1011.9 |
| 20260507094003 | 0 | 302 | 0.0 | 0.0 | 0.00 | 0.00 | 0.00 | 88 | 1011.9 |
| 20260507093511 | 0 | 302 | 0.0 | 0.0 | 0.00 | 0.00 | 0.00 | 88 | 1012.0 |
| 20260507093025 | 0 | 302 | 0.0 | 0.0 | 0.00 | 0.00 | 0.00 | 88 | 1012.1 |
| 20260507092508 | 0 | 302 | 0.0 | 0.0 | 0.00 | 0.00 | 0.00 | 88 | 1012.1 |
| 20260507092010 | 0 | 302 | 0.0 | 0.0 | 0.00 | 0.00 | 0.00 | 87 | 1012.1 |
| 20260507091535 | 0 | 302 | 0.0 | 0.0 | 0.00 | 0.00 | 0.00 | 87 | 1012.1 |
| 20260507091008 | 0 | 302 | 0.0 | 0.0 | 0.00 | 0.00 | 0.00 | 87 | 1012.0 |
| 20260507090511 | 0 | 302 | 0.0 | 0.0 | 0.00 | 0.00 | 0.00 | 86 | 1012.0 |
| 20260507090024 | 1 | 302 | 0.0 | 0.0 | 0.00 | 0.00 | 0.00 | 86 | 1012.0 |
| 20260507085504 | 1 | 302 | 0.0 | 0.0 | 0.00 | 0.00 | 0.00 | 86 | 1012.2 |
| 20260507085004 | 1 | 302 | 0.0 | 0.0 | 0.00 | 0.00 | 0.00 | 86 | 1012.1 |
| 20260507084518 | 1 | 302 | 0.0 | 0.0 | 0.00 | 0.00 | 0.00 | 86 | 1012.1 |
| 20260507084003 | 1 | 302 | 0.0 | 0.0 | 0.00 | 0.00 | 0.00 | 86 | 1012.1 |
| 20260507083509 | 1 | 302 | 0.0 | 0.0 | 0.00 | 0.00 | 0.00 | 85 | 1012.2 |
| 20260507083014 | 1 | 302 | 0.0 | 0.0 | 0.00 | 0.00 | 0.00 | 85 | 1012.2 |
| 20260507082507 | 1 | 302 | 0.0 | 0.0 | 0.00 | 0.00 | 0.00 | 85 | 1012.3 |
| 20260507082006 | 1 | 302 | 0.0 | 0.0 | 0.00 | 0.00 | 0.00 | 85 | 1012.3 |
| 20260507081523 | 1 | 302 | 0.0 | 0.0 | 0.00 | 0.00 | 0.00 | 84 | 1012.3 |
| 20260507081008 | 1 | 302 | 0.0 | 0.0 | 0.00 | 0.00 | 0.00 | 84 | 1012.3 |
| 20260507080508 | 1 | 302 | 0.0 | 0.0 | 0.00 | 0.00 | 0.00 | 83 | 1012.4 |
| 20260507080027 | 2 | 302 | 0.0 | 0.0 | 0.00 | 0.00 | 0.00 | 83 | 1012.4 |
| 20260507075508 | 2 | 302 | 0.0 | 0.0 | 0.00 | 0.00 | 0.00 | 83 | 1012.4 |
| 20260507075011 | 2 | 302 | 0.0 | 0.0 | 0.00 | 0.00 | 0.00 | 82 | 1012.4 |
| 20260507074527 | 2 | 302 | 0.0 | 0.0 | 0.00 | 0.00 | 0.00 | 82 | 1012.4 |
| 20260507074006 | 2 | 302 | 0.0 | 0.0 | 0.00 | 0.00 | 0.00 | 82 | 1012.4 |
| 20260507073504 | 2 | 302 | 0.0 | 0.0 | 0.00 | 0.00 | 0.00 | 81 | 1012.5 |
| 20260507073012 | 2 | 302 | 0.0 | 0.0 | 0.00 | 0.00 | 0.00 | 81 | 1012.5 |
| 20260507072507 | 2 | 302 | 0.0 | 3.2 | 0.00 | 0.00 | 0.00 | 81 | 1012.5 |
| 20260507072009 | 2 | 302 | 0.0 | 3.2 | 0.00 | 0.00 | 0.00 | 80 | 1012.5 |
| 20260507071519 | 2 | 19 | 0.0 | 0.0 | 0.00 | 0.00 | 0.00 | 79 | 1012.5 |
| 20260507071005 | 2 | 19 | 0.0 | 0.0 | 0.00 | 0.00 | 0.00 | 79 | 1012.5 |
| 20260507070508 | 2 | 19 | 0.0 | 0.0 | 0.00 | 0.00 | 0.00 | 78 | 1012.5 |
| 20260507070025 | 2 | 19 | 0.0 | 0.0 | 0.00 | 0.00 | 0.00 | 78 | 1012.6 |
| 20260507065507 | 2 | 19 | 0.0 | 1.6 | 0.00 | 0.00 | 0.00 | 77 | 1012.6 |
| 20260507065006 | 2 | 19 | 0.0 | 1.6 | 0.00 | 0.00 | 0.00 | 77 | 1012.7 |
| 20260507064528 | 2 | 19 | 0.0 | 1.6 | 0.00 | 0.00 | 0.00 | 78 | 1012.9 |
| 20260507064008 | 2 | 19 | 0.0 | 0.0 | 0.00 | 0.00 | 0.00 | 80 | 1012.9 |
| 20260507063510 | 2 | 19 | 0.0 | 0.0 | 0.00 | 0.00 | 0.00 | 80 | 1013.0 |
| 20260507063039 | 2 | 19 | 0.0 | 0.0 | 0.00 | 0.00 | 0.00 | 79 | 1013.0 |
| 20260507062505 | 2 | 19 | 0.0 | 0.0 | 0.00 | 0.00 | 0.00 | 80 | 1013.1 |
| 20260507062004 | 2 | 19 | 0.0 | 0.0 | 0.00 | 0.00 | 0.00 | 79 | 1013.1 |
| 20260507061516 | 2 | 19 | 0.0 | 0.0 | 0.00 | 0.00 | 0.00 | 77 | 1013.0 |
| 20260507061007 | 3 | 19 | 0.0 | 0.0 | 0.00 | 0.00 | 0.00 | 77 | 1013.0 |
| 20260507060507 | 3 | 19 | 0.0 | 0.0 | 0.00 | 0.00 | 0.00 | 76 | 1013.1 |
| 20260507060034 | 3 | 19 | 0.0 | 0.0 | 0.00 | 0.00 | 0.00 | 75 | 1013.1 |
| 20260507055508 | 3 | 19 | 0.0 | 1.6 | 0.00 | 0.00 | 0.00 | 75 | 1013.1 |
| 20260507055009 | 3 | 19 | 0.0 | 1.6 | 0.00 | 0.00 | 0.00 | 74 | 1013.1 |
| 20260507054524 | 3 | 19 | 0.0 | 1.6 | 0.00 | 0.00 | 0.00 | 75 | 1013.0 |
| 20260507054009 | 3 | 19 | 0.0 | 0.0 | 0.00 | 0.00 | 0.00 | 75 | 1013.0 |
| 20260507053509 | 3 | 19 | 0.0 | 0.0 | 0.00 | 0.00 | 0.00 | 75 | 1013.0 |
| 20260507053026 | 3 | 19 | 0.0 | 0.0 | 0.00 | 0.00 | 0.00 | 74 | 1013.1 |
| 20260507052511 | 3 | 19 | 0.0 | 0.0 | 0.00 | 0.00 | 0.00 | 74 | 1013.2 |
| 20260507052008 | 3 | 19 | 0.0 | 1.6 | 0.00 | 0.00 | 0.00 | 74 | 1013.2 |
| 20260507051532 | 3 | 19 | 0.0 | 3.2 | 0.00 | 0.00 | 0.00 | 73 | 1013.3 |
| 20260507051003 | 3 | 19 | 0.0 | 3.2 | 0.00 | 0.00 | 0.00 | 72 | 1013.3 |
| 20260507050504 | 3 | 19 | 0.0 | 3.2 | 0.00 | 0.00 | 0.00 | 74 | 1013.4 |
| 20260507050019 | 3 | 19 | 0.0 | 0.0 | 0.00 | 0.00 | 0.00 | 76 | 1013.5 |
| 20260507045503 | 3 | 19 | 0.0 | 0.0 | 0.00 | 0.00 | 0.00 | 75 | 1013.5 |
| 20260507045002 | 3 | 19 | 0.0 | 0.0 | 0.00 | 0.00 | 0.00 | 74 | 1013.5 |
| 20260507044512 | 3 | 19 | 0.0 | 0.0 | 0.00 | 0.00 | 0.00 | 74 | 1013.4 |
| 20260507044003 | 3 | 19 | 0.0 | 0.0 | 0.00 | 0.00 | 0.00 | 72 | 1013.4 |
| 20260507043505 | 3 | 19 | 0.0 | 1.6 | 0.00 | 0.00 | 0.00 | 72 | 1013.2 |
| 20260507043012 | 3 | 19 | 0.0 | 1.6 | 0.00 | 0.00 | 0.00 | 72 | 1013.4 |
| 20260507042503 | 3 | 19 | 0.0 | 1.6 | 0.00 | 0.00 | 0.00 | 72 | 1013.4 |
| 20260507042003 | 3 | 19 | 0.0 | 1.6 | 0.00 | 0.00 | 0.00 | 72 | 1013.3 |
| 20260507041508 | 3 | 19 | 0.0 | 1.6 | 0.00 | 0.00 | 0.00 | 72 | 1013.3 |
| 20260507041003 | 3 | 19 | 0.0 | 0.0 | 0.00 | 0.00 | 0.00 | 71 | 1013.4 |
| 20260507040504 | 3 | 19 | 0.0 | 0.0 | 0.00 | 0.00 | 0.00 | 71 | 1013.3 |
| 20260507040011 | 3 | 19 | 0.0 | 0.0 | 0.00 | 0.00 | 0.00 | 71 | 1013.4 |
| 20260507035504 | 3 | 19 | 0.0 | 0.0 | 0.00 | 0.00 | 0.00 | 70 | 1013.4 |
| 20260507035004 | 3 | 19 | 0.0 | 0.0 | 0.00 | 0.00 | 0.00 | 70 | 1013.4 |
| 20260507034527 | 3 | 19 | 0.0 | 1.6 | 0.00 | 0.00 | 0.00 | 69 | 1013.4 |
| 20260507034007 | 3 | 19 | 0.0 | 1.6 | 0.00 | 0.00 | 0.00 | 69 | 1013.5 |
| 20260507033507 | 3 | 19 | 0.0 | 0.0 | 0.00 | 0.00 | 0.00 | 69 | 1013.6 |
| 20260507033013 | 3 | 19 | 0.0 | 0.0 | 0.00 | 0.00 | 0.00 | 67 | 1013.6 |
| 20260507032504 | 3 | 19 | 0.0 | 1.6 | 0.00 | 0.00 | 0.00 | 67 | 1013.6 |
| 20260507032006 | 3 | 19 | 0.0 | 1.6 | 0.00 | 0.00 | 0.00 | 68 | 1013.6 |
| 20260507031513 | 3 | 19 | 0.0 | 1.6 | 0.00 | 0.00 | 0.00 | 68 | 1013.5 |
| 20260507031004 | 3 | 19 | 0.0 | 1.6 | 0.00 | 0.00 | 0.00 | 67 | 1013.6 |
| 20260507030503 | 3 | 19 | 0.0 | 1.6 | 0.00 | 0.00 | 0.00 | 67 | 1013.7 |
| 20260507030011 | 3 | 19 | 0.0 | 1.6 | 0.00 | 0.00 | 0.00 | 67 | 1013.7 |
| 20260507025504 | 3 | 19 | 0.0 | 0.0 | 0.00 | 0.00 | 0.00 | 67 | 1013.6 |
| 20260507025002 | 3 | 19 | 0.0 | 0.0 | 0.00 | 0.00 | 0.00 | 65 | 1013.6 |
| 20260507024517 | 3 | 19 | 0.0 | 0.0 | 0.00 | 0.00 | 0.00 | 66 | 1013.6 |
| 20260507024009 | 3 | 19 | 0.0 | 0.0 | 0.00 | 0.00 | 0.00 | 67 | 1013.5 |
| 20260507023502 | 3 | 19 | 0.0 | 0.0 | 0.00 | 0.00 | 0.00 | 67 | 1013.5 |
| 20260507023011 | 3 | 19 | 0.0 | 0.0 | 0.00 | 0.00 | 0.00 | 66 | 1013.5 |
| 20260507022507 | 3 | 19 | 0.0 | 0.0 | 0.00 | 0.00 | 0.00 | 66 | 1013.6 |
| 20260507022006 | 3 | 19 | 0.0 | 0.0 | 0.00 | 0.00 | 0.00 | 64 | 1013.5 |
| 20260507021515 | 3 | 19 | 0.0 | 0.0 | 0.00 | 0.00 | 0.00 | 65 | 1013.6 |
| 20260507021004 | 3 | 19 | 0.0 | 1.6 | 0.00 | 0.00 | 0.00 | 64 | 1013.5 |
| 20260507020505 | 3 | 19 | 0.0 | 4.8 | 0.00 | 0.00 | 0.00 | 64 | 1013.4 |
| 20260507020027 | 3 | 19 | 0.0 | 4.8 | 0.00 | 0.00 | 0.00 | 63 | 1013.3 |
| 20260507015503 | 3 | 76 | 0.0 | 4.8 | 0.00 | 0.00 | 0.00 | 62 | 1013.4 |
| 20260507015004 | 3 | 27 | 0.0 | 6.4 | 0.00 | 0.00 | 0.00 | 62 | 1013.4 |
| 20260507014514 | 3 | 37 | 1.6 | 6.4 | 0.00 | 0.00 | 0.00 | 62 | 1013.2 |
| 20260507014005 | 3 | 96 | 1.6 | 8.0 | 0.00 | 0.00 | 0.00 | 62 | 1013.2 |
| 20260507013504 | 3 | 43 | 3.2 | 8.0 | 0.00 | 0.00 | 0.00 | 62 | 1013.2 |
| 20260507013019 | 3 | 18 | 1.6 | 6.4 | 0.00 | 0.00 | 0.00 | 63 | 1013.1 |
| 20260507012506 | 3 | 32 | 1.6 | 6.4 | 0.00 | 0.00 | 0.00 | 63 | 1013.1 |
| 20260507012007 | 3 | 70 | 1.6 | 4.8 | 0.00 | 0.00 | 0.00 | 63 | 1013.1 |
| 20260507011514 | 4 | 76 | 1.6 | 4.8 | 0.00 | 0.00 | 0.00 | 63 | 1013.1 |
| 20260507011007 | 4 | 12 | 1.6 | 4.8 | 0.00 | 0.00 | 0.00 | 62 | 1013.0 |
| 20260507010504 | 4 | 30 | 3.2 | 9.7 | 0.00 | 0.00 | 0.00 | 62 | 1012.9 |
| 20260507010013 | 4 | 32 | 3.2 | 9.7 | 0.00 | 0.00 | 0.00 | 61 | 1012.8 |
| 20260507005505 | 4 | 46 | 4.8 | 12.9 | 0.00 | 0.00 | 0.00 | 62 | 1012.8 |
| 20260507005005 | 5 | 38 | 4.8 | 12.9 | 0.00 | 0.00 | 0.00 | 61 | 1012.7 |
| 20260507004515 | 5 | 51 | 3.2 | 8.0 | 0.00 | 0.00 | 0.00 | 61 | 1012.7 |
| 20260507004005 | 5 | 49 | 4.8 | 8.0 | 0.00 | 0.00 | 0.00 | 61 | 1012.7 |
| 20260507003504 | 5 | 64 | 1.6 | 6.4 | 0.00 | 0.00 | 0.00 | 61 | 1012.6 |
| 20260507003014 | 5 | 79 | 3.2 | 8.0 | 0.00 | 0.00 | 0.00 | 60 | 1012.5 |
| 20260507002505 | 5 | 57 | 3.2 | 8.0 | 0.00 | 0.00 | 0.00 | 59 | 1012.4 |
| 20260507002008 | 6 | 20 | 4.8 | 12.9 | 0.00 | 0.00 | 0.00 | 58 | 1012.4 |
| 20260507001517 | 6 | 15 | 4.8 | 12.9 | 0.00 | 0.00 | 0.00 | 58 | 1012.3 |
| 20260507001009 | 6 | 88 | 3.2 | 16.1 | 0.00 | 0.00 | 0.00 | 57 | 1012.3 |
| 20260507000504 | 6 | 34 | 8.0 | 16.1 | 0.00 | 0.00 | 0.00 | 55 | 1012.3 |
| 20260507000019 | 7 | 21 | 3.2 | 9.7 | 0.00 | 0.00 | 0.00 | 51 | 1012.3 |
| 20260506235509 | 7 | 267 | 0.0 | 6.4 | 0.00 | 0.00 | 0.00 | 50 | 1012.3 |
| 20260506235004 | 7 | 211 | 1.6 | 11.3 | 0.00 | 0.00 | 0.00 | 50 | 1012.3 |
| 20260506234522 | 7 | 302 | 1.6 | 12.9 | 0.00 | 0.00 | 0.00 | 50 | 1012.3 |
| 20260506234006 | 7 | 227 | 3.2 | 12.9 | 0.00 | 0.00 | 0.00 | 50 | 1012.3 |
| 20260506233507 | 7 | 186 | 4.8 | 14.5 | 0.00 | 0.00 | 0.00 | 49 | 1012.3 |
| 20260506233016 | 7 | 209 | 4.8 | 14.5 | 0.00 | 0.00 | 0.00 | 49 | 1012.3 |
| 20260506232504 | 7 | 37 | 1.6 | 11.3 | 0.00 | 0.00 | 0.00 | 51 | 1012.3 |
| 20260506232007 | 7 | 12 | 6.4 | 12.9 | 0.00 | 0.00 | 0.00 | 50 | 1012.3 |
| 20260506231518 | 7 | 5 | 6.4 | 16.1 | 0.00 | 0.00 | 0.00 | 50 | 1012.3 |
| 20260506231005 | 7 | 57 | 3.2 | 16.1 | 0.00 | 0.00 | 0.00 | 49 | 1012.3 |
| 20260506230505 | 7 | 333 | 4.8 | 14.5 | 0.00 | 0.00 | 0.00 | 50 | 1012.4 |
| 20260506230016 | 7 | 32 | 6.4 | 14.5 | 0.00 | 0.00 | 0.00 | 50 | 1012.3 |
| 20260506225508 | 7 | 334 | 4.8 | 9.7 | 0.00 | 0.00 | 0.00 | 49 | 1012.4 |
| 20260506225007 | 7 | 209 | 0.0 | 12.9 | 0.00 | 0.00 | 0.00 | 50 | 1012.4 |
| 20260506224519 | 7 | 318 | 3.2 | 17.7 | 0.00 | 0.00 | 0.00 | 50 | 1012.4 |
| 20260506224006 | 7 | 360 | 1.6 | 17.7 | 0.00 | 0.00 | 0.00 | 51 | 1012.4 |
| 20260506223506 | 7 | 303 | 3.2 | 8.0 | 0.00 | 0.00 | 0.00 | 48 | 1012.4 |
| 20260506223020 | 7 | 306 | 1.6 | 16.1 | 0.00 | 0.00 | 0.00 | 50 | 1012.5 |
| 20260506222507 | 7 | 322 | 1.6 | 16.1 | 0.00 | 0.00 | 0.00 | 49 | 1012.4 |
| 20260506222006 | 7 | 205 | 1.6 | 14.5 | 0.00 | 0.00 | 0.00 | 48 | 1012.5 |
| 20260506221517 | 7 | 326 | 8.0 | 14.5 | 0.00 | 0.00 | 0.00 | 48 | 1012.4 |
| 20260506221004 | 7 | 20 | 4.8 | 11.3 | 0.00 | 0.00 | 0.00 | 48 | 1012.4 |
| 20260506220507 | 7 | 65 | 3.2 | 12.9 | 0.00 | 0.00 | 0.00 | 49 | 1012.4 |
| 20260506220024 | 7 | 352 | 0.0 | 12.9 | 0.00 | 0.00 | 0.00 | 50 | 1012.4 |
| 20260506215502 | 7 | 225 | 1.6 | 25.7 | 0.00 | 0.00 | 0.00 | 48 | 1012.4 |
| 20260506215002 | 8 | 336 | 3.2 | 25.7 | 0.00 | 0.00 | 0.00 | 47 | 1012.3 |
| 20260506214504 | 7 | 333 | 3.2 | 12.9 | 0.00 | 0.00 | 0.00 | 49 | 1012.4 |
| 20260506214004 | 7 | 285 | 1.6 | 12.9 | 0.00 | 0.00 | 0.00 | 48 | 1012.4 |
| 20260506213504 | 7 | 190 | 3.2 | 12.9 | 0.00 | 0.00 | 0.00 | 47 | 1012.4 |
| 20260506213005 | 8 | 188 | 4.8 | 14.5 | 0.00 | 0.00 | 0.00 | 47 | 1012.4 |
| 20260506212503 | 8 | 196 | 4.8 | 14.5 | 0.00 | 0.00 | 0.00 | 49 | 1012.3 |
| 20260506212003 | 7 | 14 | 3.2 | 11.3 | 0.00 | 0.00 | 0.00 | 47 | 1012.3 |
| 20260506211513 | 8 | 53 | 3.2 | 11.3 | 0.00 | 0.00 | 0.00 | 48 | 1012.4 |